Address 0xed235e1618bf9324c63f74c406b91e18bc6e7d3a

 
 
Txn Hash Method
Block
From
To
Value [Txn Fee]
0x643ff183b6507d81644a262fed5988fad67e5f3fadacc9e8b957fd9bc048290cTransfer105164492021-08-31 20:12:2025 days 23 hrs ago0xed235e1618bf9324c63f74c406b91e18bc6e7d3aOUT Coinary: CYT Token0 BNB0.00010691
0x7a6f58d79b0a5f549776b72291dc4c376afde490161882ec6f18b759b79564a6Swap Exact Token...105164202021-08-31 20:10:5325 days 23 hrs ago0xed235e1618bf9324c63f74c406b91e18bc6e7d3aOUT 0xcf0febd3f17cef5b47b0cd257acf6025c5bff3b70 BNB0.000876845
0xa51d50a330b4a2d72b8207b7b1eddac024d3e1174964ec9dcda64108e9b73f7fClaim Reward104730462021-08-30 7:17:1227 days 12 hrs ago0xed235e1618bf9324c63f74c406b91e18bc6e7d3aOUT 0x1067d34d7bebe2be81657e8a2e3cfebb0161f96b0 BNB0.000849265
0xd3dbb2472a8abd466b21f0b89d87152b8c65b1f561e93a3b3169679215b2c2ebJoin Raid104608282021-08-29 21:06:1627 days 22 hrs ago0xed235e1618bf9324c63f74c406b91e18bc6e7d3aOUT 0x1067d34d7bebe2be81657e8a2e3cfebb0161f96b0 BNB0.001508295
0x982addcdd56f86beb133eec9c4def484713ab50a30b9b42da429525d030796daJoin Raid104608192021-08-29 21:05:4927 days 22 hrs ago0xed235e1618bf9324c63f74c406b91e18bc6e7d3aOUT 0x1067d34d7bebe2be81657e8a2e3cfebb0161f96b0 BNB0.001477315
0xf2b5a07e83afb07cab63403769334022bac7dfce3c1430165910c1008dfaa84aJoin Raid104608112021-08-29 21:05:2527 days 22 hrs ago0xed235e1618bf9324c63f74c406b91e18bc6e7d3aOUT 0x1067d34d7bebe2be81657e8a2e3cfebb0161f96b0 BNB0.00152093
0x572dfe9cc879b5f5bdbd110bd3de2a7f8fb0611d8ffb0537201f37af3f750874Claim Reward104169602021-08-28 8:16:0229 days 11 hrs ago0xed235e1618bf9324c63f74c406b91e18bc6e7d3aOUT 0x1067d34d7bebe2be81657e8a2e3cfebb0161f96b0 BNB0.004902355
0x523d6b0cdcec3955c431fb6ea93c64c926c63f117e7267643a3a6b98e94c1db9Join Raid104124692021-08-28 4:28:0429 days 15 hrs ago0xed235e1618bf9324c63f74c406b91e18bc6e7d3aOUT 0x1067d34d7bebe2be81657e8a2e3cfebb0161f96b0 BNB0.001328925
0x7668acd15451a29b49eb09405847ccac3a051ca0ec1408a5ce948716689b356fJoin Raid104120452021-08-28 4:06:5229 days 15 hrs ago0xed235e1618bf9324c63f74c406b91e18bc6e7d3aOUT 0x1067d34d7bebe2be81657e8a2e3cfebb0161f96b0 BNB0.001297505
0x2fde15247d251074ae6ae9ccd95126248e7603e642c47b99b79950c1a2fa9c24Join Raid104119702021-08-28 4:03:0729 days 15 hrs ago0xed235e1618bf9324c63f74c406b91e18bc6e7d3aOUT 0x1067d34d7bebe2be81657e8a2e3cfebb0161f96b0 BNB0.00126651
0xf3718cf6b9410d7ff0feadc597601971f79537178ecc15141998da9e00ef25f0Transfer104119052021-08-28 3:59:5229 days 15 hrs ago0x0ac44a184e99e412576617de9a252d89d4c20ce6 IN 0xed235e1618bf9324c63f74c406b91e18bc6e7d3a0.02 BNB0.000105
0x2b56313b48f4796c8a293e1502dac367a9b1cff947dec4f86f4d6272deac264fJoin Raid104118732021-08-28 3:58:1629 days 15 hrs ago0xed235e1618bf9324c63f74c406b91e18bc6e7d3aOUT 0x1067d34d7bebe2be81657e8a2e3cfebb0161f96b0 BNB0.001310565
0xdf08c7e81f96d15a39ec500a2cca272cda0b8d9f181de6b725144f1a72c84807Claim Xp Rewards103433162021-08-25 17:47:2732 days 1 hr ago0xed235e1618bf9324c63f74c406b91e18bc6e7d3aOUT CryptoBlades: Gameplay0 BNB0.002450915
0x36707209b2668a589526cd821ec86075c2e02e8d05ea165a62995218c65510f9Fight103433082021-08-25 17:47:0332 days 1 hr ago0xed235e1618bf9324c63f74c406b91e18bc6e7d3aOUT CryptoBlades: Gameplay0 BNB0.000751495
0xea22ee8583539320a54a571561dd5b05b1c27619099ec073dd65232dba17a4eeFight103432802021-08-25 17:45:3932 days 1 hr ago0xed235e1618bf9324c63f74c406b91e18bc6e7d3aOUT CryptoBlades: Gameplay0 BNB0.00074439
0x5749e3d4fac7225f7f27569adc130f6456e520a53060659c47135c32fff06fd6Fight103432272021-08-25 17:43:0032 days 1 hr ago0xed235e1618bf9324c63f74c406b91e18bc6e7d3aOUT CryptoBlades: Gameplay0 BNB0.00075248
0xb849cb99f24bf27e3ce4a2cbf7245158889d15873dc85e046e537b763b2396e4Fight101995432021-08-20 17:20:2037 days 2 hrs ago0xed235e1618bf9324c63f74c406b91e18bc6e7d3aOUT CryptoBlades: Gameplay0 BNB0.000746065
0xba81b80c3c0e8cfe6ca57edf621d24f67ddbf55beecb1d1667201e1df33eaa73Fight101995362021-08-20 17:19:5937 days 2 hrs ago0xed235e1618bf9324c63f74c406b91e18bc6e7d3aOUT CryptoBlades: Gameplay0 BNB0.000744945
0xe1055d091730bbfa1388c3e416fbe414174982ccbb20f35eb3b9fd97efd2ead0Fight101995232021-08-20 17:19:2037 days 2 hrs ago0xed235e1618bf9324c63f74c406b91e18bc6e7d3aOUT CryptoBlades: Gameplay0 BNB0.000746705
0x2b9a5c44d9f299603b78c37fd16373b0b0d3d8636bda25114a92d6d093f0fc5aChange Listing P...101813482021-08-20 2:00:4837 days 17 hrs ago0xed235e1618bf9324c63f74c406b91e18bc6e7d3aOUT 0x90099da42806b21128a094c713347c7885af79e20 BNB0.00018119
0x8e07c46313cf7ed3276b4ee1c3ac5edbee6912b726fa9ec529a0b833dd4deafaFight101181142021-08-17 21:03:5139 days 22 hrs ago0xed235e1618bf9324c63f74c406b91e18bc6e7d3aOUT CryptoBlades: Gameplay0 BNB0.00074736
0x2c27dd446020c2a09338bc848c65bd73a45ae23e772e705f6c8a01879c7323c6Change Listing P...101049662021-08-17 10:05:0740 days 9 hrs ago0xed235e1618bf9324c63f74c406b91e18bc6e7d3aOUT 0x90099da42806b21128a094c713347c7885af79e20 BNB0.00018119
0x67d1e457219565c2cd224023d1f8b8ba7d50d1bf2129db84ceda5707a3672352Transfer101049492021-08-17 10:04:1640 days 9 hrs ago0x0ac44a184e99e412576617de9a252d89d4c20ce6 IN 0xed235e1618bf9324c63f74c406b91e18bc6e7d3a0.01 BNB0.000105
0x424a9e0d16bf1c8d91f21e53c949ef16b5f5b4934e95f9c1833bdd3ac2e1b73aCancel Listing101049402021-08-17 10:03:4940 days 9 hrs ago0xed235e1618bf9324c63f74c406b91e18bc6e7d3aOUT 0x90099da42806b21128a094c713347c7885af79e20 BNB0.00101552
0xf894ad9ec7f6e6dfc22d9ccc5a91593fe00492b4ff49044eeae77827d94dc253Add Listing100239192021-08-14 14:19:3443 days 5 hrs ago0xed235e1618bf9324c63f74c406b91e18bc6e7d3aOUT 0x90099da42806b21128a094c713347c7885af79e20 BNB0.001023445
[ Download CSV Export 
Latest 2 internal transactions
Parent Txn Hash Block From To Value
0xbd69a0c121c2eaf959958cc510d17bcdcafe4dfd5cbe3bd3f1bf6a3e91295f8a96261222021-07-31 8:44:4457 days 10 hrs ago 0xcf0febd3f17cef5b47b0cd257acf6025c5bff3b70xed235e1618bf9324c63f74c406b91e18bc6e7d3a0.1 BNB
0x8aecd739990c05cdc9163555bf3accc241cef3406796745980f4f1225ee353c793782242021-07-22 11:22:1166 days 8 hrs ago 0xcf0febd3f17cef5b47b0cd257acf6025c5bff3b70xed235e1618bf9324c63f74c406b91e18bc6e7d3a0.000301517196421713 BNB
[ Download CSV Export 
Loading

Contract Name:
0 BNB

Compiler Version
0

Optimization Enabled:
0 BNB

Other Settings:
-NA-
Block Transaction Gas Used Reward
Age Block Fee Address BC Fee Address Voting Power Jailed Incoming
Block Uncle Number Difficulty Gas Used Reward
Loading
Loading
Make sure to use the "Vote Down" button for any spammy posts, and the "Vote Up" for interesting conversations.